Weather History for KM19 - August, 2013

Change the Weather History Date:

Wednesday, August 28, 2013

  Actual Average (KJBR) Record (KJBR)
Temperature  
Mean Temperature 80 °F 78 °F  
Max Temperature 93 °F 89 °F 104 °F (1909)
Min Temperature 68 °F 68 °F 52 °F (1906)
Degree Days  
Heating Degree Days 0 0  
Month to date heating degree days 0  
Since 1 June heating degree days 1  
Since 1 July heating degree days 0  
Cooling Degree Days 16 13  
Month to date cooling degree days 422  
Year to date cooling degree days 1509  
Since 1 June cooling degree days 1296  
Growing Degree Days 30 (Base 50)    
Moisture  
Dew Point 69 °F    
Average Humidity 70    
Maximum Humidity 93    
Minimum Humidity 41    
Precipitation  
Precipitation 0.00 in 0.08 in 2.37 in (1940)
Month to date precipitation 2.28  
Year to date precipitation 30.85  
Snow  
Snow 0.00 in 0.00 in - ()
Month to date snowfall 0.0  
Since 1 June snowfall 0.0  
Since 1 July snowfall 0.0  
Snow Depth -    
Sea Level Pressure  
Sea Level Pressure 30.05 in    
Wind  
Wind Speed 5 mph (SSW)    
Max Wind Speed 8 mph    
Max Gust Speed -    
Visibility 10 miles    
Events      
T = Trace of Precipitation, MM = Missing Value Source: NWS Daily Summary

Daily Weather History Graph

Daily Weather History Graph

Search for Another Location

Airport or City:

Trip Planner

Search our weather history database for the weather conditions in past years. The results will help you decide how hot, cold, wet, or windy it might be!

Date:

Astronomy

Aug. 28, 2013 Rise Set
Actual Time 6:33 AM CDT 7:37 PM CDT
Civil Twilight 6:07 AM CDT 8:03 PM CDT
Nautical Twilight 5:36 AM CDT 8:34 PM CDT
Astronomical Twilight 5:04 AM CDT 9:06 PM CDT
Moon No Moon Rise 2:09 PM CDT (8/28)
Length of Visible Light 13h 55m
Length of Day
13h 03m
Waning Gibbous, 47% of the Moon is Illuminated
Aug 28
Waning Gibbous
Sep 5
New
Sep 12
First Quarter
Sep 19
Full
Sep 26
Last Quarter

Hourly Weather History & Observations

Time (CDT) Temp. Heat Index Dew Point Humidity Pressure Visibility Wind Dir Wind Speed Gust Speed Precip Events Conditions
12:56 AM 73.9 °F - 68.9 °F 84% 30.06 in 10.0 mi South 3.5 mph - N/A   Clear
1:56 AM 72.9 °F - 68.0 °F 85% 30.05 in 10.0 mi SSW 5.8 mph - N/A   Clear
2:56 AM 72.9 °F - 68.0 °F 85% 30.04 in 10.0 mi SSW 3.5 mph - N/A   Clear
3:56 AM 68.9 °F - 66.9 °F 93% 30.04 in 10.0 mi South 3.5 mph - N/A   Clear
4:56 AM 68.0 °F - 65.8 °F 93% 30.05 in 10.0 mi South 5.8 mph - N/A   Clear
5:56 AM 68.9 °F - 66.9 °F 93% 30.06 in 10.0 mi SSW 4.6 mph - N/A   Clear
6:56 AM 68.9 °F - 66.9 °F 93% 30.08 in 10.0 mi South 3.5 mph - N/A   Clear
7:56 AM 72.0 °F - 68.9 °F 90% 30.09 in 8.0 mi SE 4.6 mph - N/A   Clear
8:56 AM 79.0 °F - 68.9 °F 71% 30.09 in 10.0 mi Calm Calm - N/A   Clear
9:56 AM 84.9 °F 88.8 °F 68.9 °F 59% 30.09 in 10.0 mi SSW 3.5 mph - N/A   Clear
10:56 AM 88.9 °F 93.0 °F 68.9 °F 51% 30.09 in 10.0 mi WSW 6.9 mph - N/A   Clear
11:56 AM 90.9 °F 95.3 °F 68.9 °F 48% 30.08 in 10.0 mi SW 8.1 mph - N/A   Clear
12:56 PM 91.9 °F 95.9 °F 68.0 °F 45% 30.07 in 10.0 mi WSW 4.6 mph - N/A   Clear
1:56 PM 93.9 °F 98.6 °F 68.0 °F 43% 30.06 in 10.0 mi SW 8.1 mph - N/A   Partly Cloudy
2:56 PM 90.9 °F 94.8 °F 68.0 °F 47% 30.04 in 10.0 mi West 6.9 mph - N/A   Clear
3:56 PM 93.9 °F 97.5 °F 66.9 °F 41% 30.03 in 10.0 mi SW 4.6 mph - N/A   Partly Cloudy
4:56 PM 91.9 °F 97.4 °F 70.0 °F 48% 30.02 in 10.0 mi South 5.8 mph - N/A   Clear
5:56 PM 91.9 °F 97.4 °F 70.0 °F 48% 30.01 in 10.0 mi SSW 5.8 mph - N/A   Clear
6:56 PM 86.9 °F 95.0 °F 73.9 °F 65% 30.01 in 10.0 mi South 5.8 mph - N/A   Clear
7:56 PM 81.0 °F 85.6 °F 72.9 °F 76% 30.02 in 10.0 mi SSE 5.8 mph - N/A   Clear
8:56 PM 79.9 °F - 72.0 °F 77% 30.03 in 10.0 mi South 5.8 mph - N/A   Clear
9:56 PM 77.9 °F - 70.9 °F 79% 30.04 in 10.0 mi South 3.5 mph - N/A   Clear
10:56 PM 77.0 °F - 70.9 °F 81% 30.04 in 10.0 mi Calm Calm - N/A   Clear
11:56 PM 73.9 °F - 70.9 °F 90% 30.05 in 10.0 mi SSE 4.6 mph - N/A   Clear